This is the latest recevied weather packets stored in our database for station/object JO1YDG-13. If no packets are shown the sender has not sent any weather packets the latest 10 day(s).
| Time | Temp. | Humidity | Pressure | Rain* | Wind** | Luminosity | Snow |
|---|---|---|---|---|---|---|---|
| 1777615568 | 18.89° C | 78% | 967 hPa | 0 mm | - | - | - |
| 1777615267 | 19.44° C | 78% | 967.5 hPa | 0 mm | - | - | - |
| 1777614967 | 18.89° C | 77% | 967.5 hPa | 0 mm | - | - | - |
| 1777614668 | 18.89° C | 79% | 967.5 hPa | 0 mm | - | - | - |
| 1777614367 | 18.33° C | 79% | 967.7 hPa | 0 mm | - | - | - |
| 1777614067 | 18.33° C | 79% | 967.7 hPa | 0 mm | - | - | - |
| 1777613768 | 18.33° C | 79% | 968.2 hPa | 0 mm | - | - | - |
| 1777613468 | 18.33° C | 79% | 968.2 hPa | 0 mm | - | - | - |
| 1777613167 | 18.33° C | 79% | 968.4 hPa | 0 mm | - | - | - |
| 1777612867 | 18.89° C | 78% | 968.4 hPa | 0 mm | - | - | - |
| 1777612567 | 18.89° C | 79% | 968.4 hPa | 0 mm | - | - | - |
| 1777612267 | 18.33° C | 80% | 968.9 hPa | 0 mm | - | - | - |
| 1777611969 | 17.78° C | 82% | 968.9 hPa | 0 mm | - | - | - |
| 1777611668 | 17.78° C | 81% | 969.1 hPa | 0 mm | - | - | - |
| 1777611368 | 17.78° C | 81% | 969.1 hPa | 0 mm | - | - | - |
| 1777611068 | 18.33° C | 81% | 969.1 hPa | 0 mm | - | - | - |
| 1777610768 | 17.78° C | 81% | 969.5 hPa | 0 mm | - | - | - |
| 1777610468 | 17.78° C | 82% | 969.5 hPa | 0 mm | - | - | - |
| 1777610167 | 17.78° C | 82% | 969.8 hPa | 0.25 mm | - | - | - |
| 1777609867 | 17.78° C | 84% | 969.8 hPa | 0.51 mm | - | - | - |
| 1777609567 | 17.78° C | 85% | 970.1 hPa | 0.51 mm | - | - | - |
| 1777609267 | 17.22° C | 85% | 970.1 hPa | 0.51 mm | - | - | - |
| 1777608968 | 17.22° C | 86% | 970.1 hPa | 0.51 mm | - | - | - |
| 1777608668 | 17.22° C | 85% | 970.6 hPa | 0.51 mm | - | - | - |
| 1777608368 | 16.67° C | 85% | 970.6 hPa | 0.51 mm | - | - | - |
* Rain latest hour (hover to see other rain measurements)
** Current wind speed in m/s (hover to see current wind gust speed)